EW8718 Weather Reports


time (UTC)temp
C
wind
direction
speed
KPH
gust
KPH
rain 1hr
cm
rain 24hr
cm
rain mn
cm
humidity
%
barometer
mb
20260506190023 33 27 3.2 0.0 0.00 0.00 0.00 9 1002.1
20260506184523 33 27 3.2 0.0 0.00 0.00 0.00 9 1002.5
20260506183018 33 27 4.8 0.0 0.00 0.00 0.00 10 1002.7
20260506181515 33 27 4.8 0.0 0.00 0.00 0.00 10 1003.0
20260506180013 32 27 4.8 0.0 0.00 0.00 0.00 11 1003.2
20260506174508 32 30 3.2 0.0 0.00 0.00 0.00 11 1003.3
20260506173005 32 35 6.4 0.0 0.00 0.00 0.00 12 1003.7
20260506171502 32 36 3.2 0.0 0.00 0.00 0.00 12 1003.9
20260506170100 32 36 0.0 0.0 0.00 0.00 0.00 12 1004.0
20260506164556 31 36 3.2 0.0 0.00 0.00 0.00 12 1004.1
20260506163055 31 36 3.2 0.0 0.00 0.00 0.00 12 1004.1
20260506161553 30 36 4.8 0.0 0.00 0.00 0.00 13 1004.2
20260506160047 30 36 4.8 0.0 0.00 0.00 0.00 13 1004.3
20260506154514 30 36 4.8 0.0 0.00 0.00 0.00 13 1004.3
20260506153012 30 36 3.2 0.0 0.00 0.00 0.00 13 1004.3
20260506151508 29 36 3.2 0.0 0.00 0.00 0.00 13 1004.4
20260506150008 29 36 0.0 0.0 0.00 0.00 0.00 13 1004.4
20260506144516 28 36 0.0 0.0 0.00 0.00 0.00 14 1004.3
20260506143006 28 36 0.0 0.0 0.00 0.00 0.00 14 1004.5
20260506141601 28 36 1.6 0.0 0.00 0.00 0.00 15 1004.3
20260506140119 28 36 0.0 0.0 0.00 0.00 0.00 13 1004.1
20260506134556 28 36 0.0 0.0 0.00 0.00 0.00 14 1003.9
20260506133125 26 36 0.0 0.0 0.00 0.00 0.00 15 1003.8
20260506131551 25 32 0.0 0.0 0.00 0.00 0.00 18 1003.6
20260506130131 23 32 0.0 0.0 0.00 0.00 0.00 20 1003.5
20260506124548 -17 0.0 0.0 0.00 0.00 0.00 1003.3
20260506123045 -17 0.0 0.0 0.00 0.00 0.00 1003.1
20260506121535 -17 0.0 0.0 0.00 0.00 0.00 1003.0
20260506120033 -17 0.0 0.0 0.00 0.00 0.00 1003.0
20260506114525 -17 0.0 0.0 0.00 0.00 0.00 1002.9
20260506113021 -17 0.0 0.0 0.00 0.00 0.00 1003.0
20260506111515 23 32 0.0 0.0 0.00 0.00 0.00 18 1002.7
20260506110044 23 32 0.0 0.0 0.00 0.00 0.00 17 1002.5
20260506104553 23 32 0.0 0.0 0.00 0.00 0.00 17 1002.4
20260506103040 23 32 0.0 0.0 0.00 0.00 0.00 17 1002.3
20260506101537 23 32 0.0 0.0 0.00 0.00 0.00 15 1002.1
20260506100036 23 32 0.0 0.0 0.00 0.00 0.00 14 1002.0
20260506094528 25 32 0.0 0.0 0.00 0.00 0.00 14 1001.7
20260506093056 25 32 3.2 0.0 0.00 0.00 0.00 13 1001.6
20260506091556 26 32 3.2 0.0 0.00 0.00 0.00 13 1001.6
20260506090053 26 33 3.2 0.0 0.00 0.00 0.00 13 1001.5
20260506084554 25 44 0.0 0.0 0.00 0.00 0.00 14 1001.5
20260506083055 25 44 0.0 0.0 0.00 0.00 0.00 14 1001.5
20260506081603 25 44 0.0 0.0 0.00 0.00 0.00 15 1001.5
20260506073010 26 44 0.0 0.0 0.00 0.00 0.00 14 1001.6
20260506071506 27 44 0.0 0.0 0.00 0.00 0.00 13 1001.6
20260506061557 30 44 1.6 0.0 0.00 0.00 0.00 9 1001.3
20260506044551 28 44 0.0 0.0 0.00 0.00 0.00 14 1000.7
20260506043041 28 44 1.6 0.0 0.00 0.00 0.00 14 1000.4
20260506041542 28 44 1.6 0.0 0.00 0.00 0.00 13 1000.2
20260506040036 29 44 1.6 0.0 0.00 0.00 0.00 13 1000.0
20260506034534 30 60 0.0 0.0 0.00 0.00 0.00 12 999.7
20260506033028 31 60 1.6 0.0 0.00 0.00 0.00 11 999.5
20260506031539 32 60 0.0 0.0 0.00 0.00 0.00 10 999.1
20260506030018 31 60 0.0 0.0 0.00 0.00 0.00 10 998.8
20260506024524 33 61 0.0 0.0 0.00 0.00 0.00 8 998.6
20260506023051 33 60 0.0 0.0 0.00 0.00 0.00 7 998.2
20260506021541 33 95 4.8 0.0 0.00 0.00 0.00 8 997.9
20260506020036 33 134 0.0 0.0 0.00 0.00 0.00 10 997.6
20260506014533 33 134 1.6 0.0 0.00 0.00 0.00 8 997.2
20260506013027 34 134 3.2 0.0 0.00 0.00 0.00 8 997.0
20260506011524 35 134 1.6 0.0 0.00 0.00 0.00 7 996.9
20260506010108 36 134 1.6 0.0 0.00 0.00 0.00 7 996.9
20260506004548 36 134 3.2 0.0 0.00 0.00 0.00 6 996.9
20260506003042 37 134 0.0 0.0 0.00 0.00 0.00 6 996.8
20260506001546 37 134 3.2 0.0 0.00 0.00 0.00 5 996.8
20260506000040 37 134 0.0 0.0 0.00 0.00 0.00 5 996.8
20260505234539 37 134 4.8 0.0 0.00 0.00 0.00 5 996.8
20260505233008 37 109 6.4 0.0 0.00 0.00 0.00 5 997.0
20260505231510 37 114 4.8 0.0 0.00 0.00 0.00 5 997.1
20260505230003 37 114 3.2 0.0 0.00 0.00 0.00 5 997.3
20260505224558 37 114 1.6 0.0 0.00 0.00 0.00 6 997.4
20260505223058 37 114 4.8 0.0 0.00 0.00 0.00 6 997.8
20260505221555 37 86 1.6 0.0 0.00 0.00 0.00 6 997.9
20260505220050 36 86 3.2 0.0 0.00 0.00 0.00 6 998.4
20260505214549 36 86 3.2 0.0 0.00 0.00 0.00 7 998.7
20260505213043 36 86 3.2 0.0 0.00 0.00 0.00 7 999.0
20260505211539 36 86 3.2 0.0 0.00 0.00 0.00 8 999.4
20260505210035 35 86 3.2 0.0 0.00 0.00 0.00 9 999.8
20260505204531 36 86 1.6 0.0 0.00 0.00 0.00 9 1000.3
20260505203036 35 86 1.6 0.0 0.00 0.00 0.00 9 1000.5
20260505201526 35 86 6.4 0.0 0.00 0.00 0.00 10 1000.8
20260505200024 35 86 1.6 0.0 0.00 0.00 0.00 11 1001.0
20260505194519 36 86 3.2 0.0 0.00 0.00 0.00 11 1001.4
20260505193018 35 86 1.6 0.0 0.00 0.00 0.00 11 1001.7
20260505191514 34 86 1.6 0.0 0.00 0.00 0.00 12 1001.9